Location: *
(49.3500°N, 12.6000°E)
Time: 23:52:52
(UTC+00:00)

Cosmos 1844 Rocket - Pass Details

Date: 18 October 2019
Orbit: 826 x 843 km, 71.0° (Epoch: 21 November)

Event Time Altitude Azimuth Distance (km) Brightness Sun altitude
Rises 17:14:56 0° 216° (SW) 3,387 6.4 -10.6°
Reaches altitude 10° 17:17:24 10° 219° (SW) 2,455 5.7 -11.0°
Maximum altitude 17:23:00 66° 302° (WNW) 915 3.1 -11.9°
Drops below altitude 10° 17:28:38 10° 25° (NNE) 2,460 4.9 -12.8°
Sets 17:31:06 0° 28° (NNE) 3,395 5.6 -13.2°
